Weather History for KDVN - June, 2014

Change the Weather History Date:

Saturday, June 7, 2014

  Actual Average Record
Temperature  
Mean Temperature 71 °F 68 °F  
Max Temperature 81 °F 79 °F 95 °F (1963)
Min Temperature 60 °F 58 °F 48 °F (1998)
Degree Days  
Heating Degree Days 0 1  
Month to date heating degree days 0 12  
Since 1 June heating degree days 0 12  
Since 1 July heating degree days 7552 6499  
Cooling Degree Days 6 5  
Month to date cooling degree days 44 29  
Year to date cooling degree days 152 90  
Since 1 June cooling degree days 44 29  
Growing Degree Days 20 (Base 50)    
Moisture  
Dew Point 59 °F    
Average Humidity 69    
Maximum Humidity 93    
Minimum Humidity 45    
Precipitation  
Precipitation 0.26 in 0.17 in 1.76 in (1951)
Month to date precipitation 1.12 1.40  
Year to date precipitation 12.68 14.21  
Snow  
Snow 0.00 in - - ()
Month to date snowfall 0.0  
Since 1 June snowfall 0.0  
Since 1 July snowfall 50.2  
Snow Depth 0.00 in    
Sea Level Pressure  
Sea Level Pressure 29.90 in    
Wind  
Wind Speed 10 mph (East)    
Max Wind Speed 24 mph    
Max Gust Speed 29 mph    
Visibility 8 miles    
Events Rain    
T = Trace of Precipitation, MM = Missing Value Source: NWS Daily Summary

Daily Weather History Graph

Daily Weather History Graph

Search for Another Location

Airport or City:

Trip Planner

Search our weather history database for the weather conditions in past years. The results will help you decide how hot, cold, wet, or windy it might be!

Date:

Astronomy

Jun. 07, 2014 Rise Set
Actual Time 5:28 AM CDT 8:34 PM CDT
Civil Twilight 4:54 AM CDT 9:08 PM CDT
Nautical Twilight 4:11 AM CDT 9:51 PM CDT
Astronomical Twilight 3:20 AM CDT 10:42 PM CDT
Moon 2:48 PM CDT (6/7) 1:54 AM CDT (6/7)
Length of Visible Light 16h 13m
Length of Day
15h 05m
Waxing Gibbous, 68% of the Moon is Illuminated
Jun 7
Waxing Gibbous
Jun 12
Full
Jun 19
Last Quarter
Jun 27
New
Jul 5
First Quarter

Hourly Weather History & Observations

Time (CDT) Temp. Dew Point Humidity Pressure Visibility Wind Dir Wind Speed Gust Speed Precip Events Conditions
12:52 AM 66.0 °F 59.0 °F 78% 29.95 in 10.0 mi ESE 4.6 mph - N/A   Clear
1:52 AM 66.0 °F 60.1 °F 81% 29.96 in 10.0 mi SSE 4.6 mph - N/A   Clear
2:52 AM 64.0 °F 59.0 °F 84% 29.95 in 10.0 mi SSE 4.6 mph - N/A   Clear
4:52 AM 63.0 °F 59.0 °F 87% 29.96 in 9.0 mi SE 6.9 mph - N/A   Clear
5:52 AM 63.0 °F 59.0 °F 87% 29.96 in 7.0 mi SE 4.6 mph - N/A   Clear
7:52 AM 71.1 °F 61.0 °F 70% 29.95 in 6.0 mi SSE 9.2 mph - N/A   Haze
8:52 AM 73.9 °F 60.1 °F 62% 29.95 in 9.0 mi South 9.2 mph - N/A   Clear
10:52 AM 78.1 °F 59.0 °F 52% 29.92 in 10.0 mi Variable 6.9 mph - N/A   Clear
11:52 AM 79.0 °F 57.9 °F 48% 29.90 in 10.0 mi SE 11.5 mph - N/A   Clear
12:52 PM 79.0 °F 55.9 °F 45% 29.87 in 10.0 mi SE 9.2 mph - N/A   Clear
1:52 PM 79.0 °F 55.9 °F 45% 29.85 in 10.0 mi SE 10.4 mph - N/A   Scattered Clouds
2:52 PM 75.9 °F 57.9 °F 54% 29.84 in 10.0 mi SE 5.8 mph - N/A   Mostly Cloudy
3:52 PM 70.0 °F 62.1 °F 76% 29.86 in 4.0 mi WSW 6.9 mph - 0.04 in Rain Light Rain
4:52 PM 68.0 °F 63.0 °F 84% 29.85 in 5.0 mi North 11.5 mph - 0.04 in Rain Light Rain
5:52 PM 66.0 °F 62.1 °F 87% 29.84 in 5.0 mi NNW 13.8 mph - 0.04 in Rain Light Rain
6:52 PM 64.0 °F 60.1 °F 87% 29.86 in 3.0 mi North 15.0 mph - 0.09 in Rain Rain
7:52 PM 63.0 °F 60.1 °F 90% 29.88 in 7.0 mi North 18.4 mph - 0.03 in Rain Light Rain
8:52 PM 63.0 °F 60.1 °F 90% 29.85 in 10.0 mi NNE 18.4 mph 27.6 mph 0.02 in Rain Light Rain
9:52 PM 62.1 °F 59.0 °F 90% 29.87 in 10.0 mi NNE 18.4 mph - 0.00 in   Mostly Cloudy
10:52 PM 62.1 °F 57.9 °F 86% 29.88 in 10.0 mi NNE 12.7 mph - N/A   Overcast
11:52 PM 61.0 °F 57.0 °F 87% 29.90 in 10.0 mi NNE 8.1 mph - N/A   Clear